This demonstration page uses our WeatherBlox Daily Observations layout. Learn more.

Left ArrowRight Arrow

Hourly Observations for January 21, 2017

Temp ( °F °C ) Dew Point ( °F °C ) Humidity (%) Winds ( mph kmh ) Pressure ( in mb ) Visibility ( mi km ) Precip ( " mm )
12:53 am 00:53 Cloudy 35 1.7 34 1.1 96 96 WSW 6 9 29.42 996 8 13 0.00 0.00
1:53 am 01:53 Mostly Cloudy 35 1.7 33 0.6 93 93 SW 5 7 29.42 996 8 13 0.00 0.00
2:53 am 02:53 Cloudy 36 2.2 33 0.6 89 89 W 9 15 29.43 997 10 16 0.00 0.00
3:53 am 03:53 Clear 34 1.1 32 0 92 92 W 7 11 29.43 997 10 16 0.00 0.00
4:53 am 04:53 Clear 34 1.1 32 0 92 92 W 8 13 29.42 996 10 16 0.00 0.00
5:53 am 05:53 Clear 34 1.1 32 0 92 92 WSW 7 11 29.44 997 10 16 0.00 0.00
6:53 am 06:53 Clear 34 1.1 31 -0.6 89 89 WSW 7 11 29.45 997 10 16 0.00 0.00
7:53 am 07:53 Sunny 33 0.6 31 -0.6 92 92 SW 5 7 29.47 998 10 16 0.00 0.00
8:53 am 08:53 Sunny 34 1.1 32 0 92 92 W 6 9 29.47 998 10 16 0.00 0.00
9:53 am 09:53 Sunny 37 2.8 34 1.1 89 89 W 6 9 29.48 998 10 16 0.00 0.00
10:53 am 10:53 Sunny 41 5 36 2.2 82 82 WNW 6 9 29.49 999 10 16 0.00 0.00
11:53 am 11:53 Sunny 45 7.2 39 3.9 80 80 WNW 3 6 29.47 998 10 16 0.00 0.00
12:53 pm 12:53 Sunny 48 8.9 39 3.9 71 71 VRB 3 6 29.47 998 10 16 0.00 0.00
1:53 pm 13:53 Sunny 49 9.4 38 3.3 66 66 VRB 7 11 29.46 998 10 16 0.00 0.00
2:53 pm 14:53 Sunny 50 10 39 3.9 66 66 SW 6 9 29.44 997 10 16 0.00 0.00
3:53 pm 15:53 Sunny 50 10 39 3.9 66 66 WSW 5 7 29.47 998 10 16 0.00 0.00
4:53 pm 16:53 Sunny 49 9.4 39 3.9 69 69 WSW 3 6 29.48 998 10 16 0.00 0.00
5:53 pm 17:53 Clear 42 5.6 37 2.8 82 82 Calm 29.52 1000 10 16 0.00 0.00
6:53 pm 18:53 Clear 38 3.3 35 1.7 89 89 Calm 29.54 1000 10 16 0.00 0.00
7:53 pm 19:53 Clear 35 1.7 33 0.6 93 93 Calm 29.57 1001 10 16 0.00 0.00
8:53 pm 20:53 Clear with Mist and Fog 34 1.1 32 0 92 92 Calm 29.59 1002 6 10 0.00 0.00
9:53 pm 21:53 Clear with Mist and Fog 32 0 31 -0.6 96 96 NNE 3 6 29.60 1002 4 6 0.00 0.00
10:34 pm 22:34 Clear with Mist and Fog 34 1 32 0 93 93 N 3 6 29.65 1004 2 3 0.00 0.00
10:39 pm 22:39 Clear with Mist and Fog 34 1.1 32 0 92 92 Calm 29.65 1004 3 5 0.00 0.00
10:53 pm 22:53 Clear with Mist and Fog 35 1.7 32 0 89 89 Calm 29.61 1003 5 8 0.00 0.00
11:14 pm 23:14 Clear with Mist and Fog 32 0 32 0 100 100 NNW 5 7 29.68 1005 2 3 0.00 0.00
11:27 pm 23:27 Clear with Mist and Fog 33 0.6 31 -0.6 92 92 NNW 7 11 29.68 1005 3 5 0.00 0.00
11:53 pm 23:53 Clear 32 0 30 -1.1 92 92 NW 6 9 29.62 1003 7 11 0.00 0.00

Powered by AerisWeather